FW4043 Weather Reports


Display with metric or nautical units.
time (UTC)temp
F
wind
direction
speed
MPH
gust
MPH
rain 1hr
in
rain 24hr
in
rain mn
in
humidity
%
barometer
mb
20260505234522 80 160 8.0 16.0 0.00 0.00 0.00 85 1008.6
20260505233025 80 153 7.0 15.0 0.00 0.00 0.00 85 1008.5
20260505231533 80 155 9.0 15.0 0.00 0.00 0.00 85 1008.6
20260505230037 80 138 7.0 16.0 0.00 0.00 0.00 85 1008.7
20260505224540 81 154 8.0 15.0 0.00 0.00 0.00 84 1008.8
20260505223050 81 194 10.0 16.0 0.00 0.00 0.00 84 1008.8
20260505221557 81 148 9.0 16.0 0.00 0.00 0.00 84 1008.9
20260505220057 82 180 7.0 16.0 0.00 0.00 0.00 84 1009.0
20260505214621 82 179 7.0 15.0 0.00 0.00 0.00 84 1009.1
20260505214501 82 105 6.0 15.0 0.00 0.00 0.00 84 1009.1
20260505213008 81 184 4.0 14.0 0.00 0.00 0.00 84 1009.4
20260505211509 81 192 6.0 18.0 0.00 0.00 0.00 84 1009.6
20260505210013 81 132 6.0 13.0 0.00 0.00 0.00 84 1009.9
20260505204525 81 165 4.0 11.0 0.00 0.00 0.00 84 1009.9
20260505203023 81 273 4.0 19.0 0.00 0.00 0.00 84 1010.2
20260505201525 82 259 7.0 16.0 0.00 0.00 0.00 85 1010.3
20260505200030 81 137 5.0 16.0 0.00 0.00 0.00 84 1010.3
20260505194531 82 252 1.0 16.0 0.00 0.00 0.00 86 1010.4
20260505193039 81 204 4.0 9.0 0.00 0.00 0.00 86 1010.6
20260505191546 81 252 6.0 12.0 0.00 0.00 0.00 86 1010.6
20260505190052 81 250 2.0 13.0 0.00 0.00 0.00 87 1010.7
20260505184601 81 233 3.0 11.0 0.00 0.00 0.00 87 1010.6
20260505183009 80 229 4.0 9.0 0.00 0.00 0.00 87 1011.0
20260505181510 80 143 6.0 13.0 0.00 0.00 0.00 87 1011.1
20260505180014 80 225 2.0 10.0 0.00 0.00 0.00 88 1011.1
20260505174520 80 184 5.0 13.0 0.00 0.00 0.00 88 1011.1
20260505173027 79 184 6.0 12.0 0.00 0.00 0.00 88 1011.2
20260505171533 79 211 4.0 10.0 0.00 0.00 0.00 88 1011.4
20260505170037 79 222 5.0 12.0 0.00 0.00 0.00 88 1011.4
20260505164548 79 221 6.0 12.0 0.00 0.00 0.00 88 1011.3
20260505163048 79 240 4.0 14.0 0.00 0.00 0.00 89 1011.3
20260505161603 78 227 4.0 11.0 0.00 0.00 0.00 89 1011.4
20260505153004 77 114 5.0 11.0 0.00 0.00 0.00 89 1011.1
20260505151506 77 132 2.0 14.0 0.00 0.00 0.00 90 1011.1
20260505124524 73 158 7.0 10.0 0.00 0.00 0.00 91 1010.8
20260505123009 72 134 6.0 9.0 0.00 0.00 0.00 91 1010.6
20260505121516 72 132 7.0 11.0 0.00 0.00 0.00 91 1010.3
20260505120028 72 135 7.0 11.0 0.00 0.00 0.00 90 1010.4
20260505114520 72 166 6.0 11.0 0.00 0.00 0.00 90 1010.4
20260505113024 72 135 6.0 10.0 0.00 0.00 0.00 90 1010.3
20260505111530 72 141 6.0 8.0 0.00 0.00 0.00 90 1010.3
20260505101553 72 222 2.0 6.0 0.00 0.00 0.00 89 1010.4
20260505100050 71 194 2.0 6.0 0.00 0.00 0.00 89 1010.6
20260505094559 71 148 4.0 7.0 0.00 0.00 0.00 89 1010.4
20260505093102 71 161 2.0 6.0 0.00 0.00 0.00 89 1010.6
20260505093002 71 158 3.0 6.0 0.00 0.00 0.00 89 1010.6
20260505091503 71 169 1.0 8.0 0.00 0.00 0.00 89 1010.8
20260505090017 71 161 2.0 7.0 0.00 0.00 0.00 89 1010.8
20260505084517 71 161 1.0 7.0 0.00 0.00 0.00 89 1010.8
20260505083022 71 136 6.0 10.0 0.00 0.00 0.00 90 1010.7
20260505081521 70 132 6.0 9.0 0.00 0.00 0.00 90 1010.8
20260505080024 70 132 6.0 9.0 0.00 0.00 0.00 89 1010.7
20260505074528 70 140 5.0 9.0 0.00 0.00 0.00 89 1011.1
20260505073025 69 132 6.0 11.0 0.00 0.00 0.00 89 1011.2
20260505071534 69 132 6.0 8.0 0.00 0.00 0.00 89 1011.3
20260505070031 69 125 6.0 10.0 0.00 0.00 0.00 89 1011.6
20260505064539 69 121 7.0 9.0 0.00 0.00 0.00 88 1011.7
20260505063049 69 131 6.0 9.0 0.00 0.00 0.00 88 1011.9
20260505061555 69 176 2.0 9.0 0.00 0.00 0.00 87 1012.4
20260505060054 69 138 5.0 8.0 0.00 0.00 0.00 88 1012.1
20260505054503 68 130 6.0 8.0 0.00 0.00 0.00 87 1012.3
20260505053006 68 114 6.0 9.0 0.00 0.00 0.00 87 1012.4
20260505051517 68 134 7.0 9.0 0.00 0.00 0.00 87 1012.6
20260505041506 69 121 6.0 9.0 0.00 0.00 0.00 85 1012.8
20260505040008 69 122 6.0 8.0 0.00 0.00 0.00 85 1012.8
20260505034512 70 126 6.0 8.0 0.00 0.00 0.00 84 1013.1
20260505033050 70 128 6.0 9.0 0.00 0.00 0.00 84 1013.0
20260505031558 71 130 6.0 9.0 0.00 0.00 0.00 83 1013.3
20260505030056 71 135 7.0 10.0 0.00 0.00 0.00 83 1013.0
20260505024606 72 134 7.0 10.0 0.00 0.00 0.00 82 1013.1
20260505023011 73 163 8.0 12.0 0.00 0.00 0.00 82 1013.0
20260505021513 73 146 7.0 14.0 0.00 0.00 0.00 81 1012.9
20260505020014 73 132 9.0 15.0 0.00 0.00 0.00 81 1012.8
20260505014521 73 143 9.0 15.0 0.00 0.00 0.00 81 1012.4
20260505013023 73 172 9.0 13.0 0.00 0.00 0.00 81 1012.5
20260505011541 74 135 8.0 14.0 0.00 0.00 0.00 80 1012.6
20260505010041 74 146 9.0 14.0 0.00 0.00 0.00 79 1012.6
20260505004552 74 150 9.0 15.0 0.00 0.00 0.00 78 1012.5
20260505003056 75 162 9.0 16.0 0.00 0.00 0.00 78 1012.4
20260505001558 75 159 8.0 16.0 0.00 0.00 0.00 77 1012.2
20260505000108 76 161 10.0 16.0 0.00 0.00 0.00 77 1012.3
20260505000001 76 140 10.0 18.0 0.00 0.00 0.00 77 1012.3